Flag for South Africa Weather past 2 weeks in Stellenbosch, South Africa

Now
64 °F

Sunny.


Feels Like: 64 °F
Forecast: 62 / 99 °F
Wind: 12 mph from Southwest

Location: Cape Town International Airport

Current Time: Jan 28, 2015 at 7:24:13 AM

Latest Report: Jan 28, 2015 at 6:00 AM


Visibility: 10 mi

Pressure: 29.95 "Hg

Humidity: 78%

Dew point: 57 °F

Location of StellenboschLocation

Historic Weather in Stellenbosch — Graph

°F

Stellenbosch temperature yesterday

Maximum temperature yesterday: 77 °F (at 12:00 PM)
Minimum temperature yesterday: 66 °F (at 1:00 AM)
Average temperature yesterday: 71 °F

Past Weeks' High & Low Weather Summary

 TemperatureHumidityPressure
High90 °F (Jan 14, 1:00 PM)94% (Jan 15, 5:00 AM)30.09 "Hg (Jan 15, 5:00 AM)
Low55 °F (Jan 17, 6:00 AM)35% (Jan 20, 12:00 PM)29.71 "Hg (Jan 16, 3:00 AM)
Average71 °F65%29.93 "Hg
* Reported Jan 13 6:00 AM — Jan 28 6:00 AM, Stellenbosch, Weather by CustomWeather, © 2014

Note: Actual official high and low records may vary slightly from our data, if they occured in-between our weather recording intervals... More about our weather records

Advertising

Stellenbosch weather history for previous 24 hours

 ConditionsComfort  
Time TempWeatherWind HumidityBarometerVisibility
6:00 AM
Jan 28
64 °FSunny.12 mph78%29.95 "Hg10 mi
5:00 AM64 °FClear.8 mph78%29.95 "Hg10 mi
4:00 AM66 °FPassing clouds.8 mph73%29.95 "HgN/A
3:00 AM66 °FPassing clouds.8 mph73%29.95 "HgN/A
2:00 AM66 °FPassing clouds.10 mph68%29.98 "HgN/A
1:00 AM68 °FPassing clouds.16 mph64%29.98 "HgN/A
12:00 AM68 °FPassing clouds.17 mph69%29.98 "HgN/A
11:00 PM
Jan 27
68 °FPassing clouds.18 mph69%30.01 "HgN/A
10:00 PM70 °FPassing clouds.22 mph64%30.01 "HgN/A
9:00 PM68 °FPassing clouds.21 mph64%30.01 "HgN/A
8:00 PM70 °FPassing clouds.24 mph60%30.01 "HgN/A
7:00 PM70 °FPassing clouds.28 mph60%29.98 "HgN/A
6:00 PM73 °FPassing clouds.29 mph53%29.98 "HgN/A
5:00 PM73 °FPassing clouds.31 mph53%30.01 "HgN/A
4:00 PM75 °FPassing clouds.33 mph54%30.01 "HgN/A
3:00 PM75 °FPassing clouds.31 mph57%30.01 "HgN/A
2:00 PM77 °FPassing clouds.31 mph54%30.04 "HgN/A
1:00 PM77 °FPassing clouds.30 mph54%30.04 "HgN/A
12:00 PM77 °FPassing clouds.23 mph51%30.04 "HgN/A
11:00 AM75 °FPassing clouds.22 mph54%30.04 "HgN/A
10:00 AM75 °FPassing clouds.18 mph50%30.04 "HgN/A
9:00 AM73 °FPassing clouds.18 mph57%30.07 "HgN/A
8:00 AM70 °FPassing clouds.16 mph64%30.04 "HgN/A
7:00 AM66 °FPassing clouds.14 mph73%30.04 "HgN/A
Weather by CustomWeather, © 2014

See weather overviewHow to use our weather pages